Weather in Malolos

Philippines     14°50′40″N   120°48′43″E
temp.,
°C
wind,
m/s
gust,
m/s
humid.,
%
clouds,
%
prec.,
mm/h
press.,
hPa
HPBL,
m
9 december, thu
thu923:00+26ene9137091 0.0 10151180
02:00+26ne91370100 0.0 10141255
05:00+25ne81273100 0.0 10141087
08:00+25ne81270100 0.0 10161211
11:00+28ne101159100 0.0 10151544
14:00+29ene785526 0.0 10121099
17:00+27ene8106394 0.0 10121001
20:00+26ene81168100 0.0 10141067
10 december, fri
fri1023:00+26ene711685 0.0 10141135
02:00+25ne8117033 0.0 10121098
05:00+24ne71072100 0.0 1012865
08:00+26ne7116889 0.0 10141124
11:00+28ene91062100 0.0 10131476
14:00+29ene91056100 0.0 10101074
17:00+27ene89655 0.0 1011893
20:00+26ene7116783 0.0 1014972
11 december, sat
sat1123:00+26ene711685 0.0 1013987
02:00+24nne58765 0.0 1012514
05:00+23nne58795 0.0 1012340
08:00+25nne68727 0.0 1014492
11:00+29ene695993 0.0 10131367
14:00+29ene786117 0.0 10111115
17:00+28ene79651 0.0 1011928
20:00+26ene586812 0.0 1013752
12 december, sun
sun1223:00+26ne597218 0.0 1013793
02:00+26ne6107538 0.0 1012846
05:00+24n5878100 0.0 1012352
08:00+25nne6972100 0.0 1014604
11:00+29ene81263100 0.0 10131381
14:00+29ene9116399 0.0 10111217
17:00+27ene9136883 0.0 1011973
20:00+27ene91370100 0.0 10131017
13 december, mon
mon1323:00+26ene9136999 0.0 10121058
02:00+26ne8127077 0.0 10111132
05:00+25ne7137582 0.0 10111082
08:00+27ne10156955 0.0 10131315
11:00+28ene11146462 0.0 10131531
14:00+29ene11146126 0.0 10101386
17:00+27ene11157166 0.0 10101205
20:00+27ene9137298 0.0 10121305